Total_Precipitation_Accumulation
1.48 1.49 1.49 1.55 1.62 1.73 1.82 1.86 1.79 1.80 1.81 1.82 1.78 1.79 1.79 1.82 1.90 1.98 1.96 1.97 2.00 1.96 1.97 2.02 2.05 2.01 2.02 2.05 2.14 2.20 2.24 2.31 2.28 1.80 1.54 1.53 1.68 1.81 1.92 1.86 1.83 1.87 1.83
1.33 1.33 1.35 1.40 1.47 1.56 1.61 1.70 1.70 1.68 1.68 1.70 1.66 1.63 1.63 1.63 1.68 1.76 1.80 1.82 1.86 1.87 1.88 1.92 1.96 1.98 2.03 2.05 2.16 2.21 2.17 2.13 2.15 2.01 1.71 1.58 1.56 1.57 1.63 1.70 1.71 1.68 1.65
1.06 1.07 1.11 1.14 1.23 1.37 1.43 1.46 1.52 1.55 1.55 1.57 1.60 1.54 1.52 1.52 1.59 1.62 1.62 1.64 1.68 1.70 1.72 1.78 1.78 1.85 1.92 1.93 2.02 2.10 2.08 2.05 2.02 1.94 1.68 1.48 1.45 1.45 1.56 1.65 1.65 1.58 1.51
0.93 0.93 0.96 0.99 1.03 1.12 1.22 1.26 1.30 1.34 1.38 1.40 1.46 1.44 1.39 1.41 1.48 1.55 1.61 1.62 1.60 1.59 1.61 1.67 1.73 1.77 1.78 1.82 1.92 1.98 2.00 2.04 2.05 2.01 1.86 1.62 1.47 1.42 1.47 1.57 1.64 1.59 1.50
0.97 0.97 0.95 0.93 0.95 1.01 1.09 1.15 1.18 1.20 1.19 1.18 1.22 1.28 1.31 1.33 1.40 1.46 1.53 1.59 1.60 1.59 1.59 1.64 1.71 1.91 1.96 1.93 1.96 1.93 1.97 2.07 2.09 2.06 1.90 1.72 1.53 1.44 1.46 1.38 1.42 1.50 1.54
1.06 1.01 0.98 0.93 0.91 0.91 0.94 0.99 1.04 1.11 1.12 1.13 1.15 1.15 1.19 1.26 1.56 1.63 1.58 1.58 1.63 1.63 1.61 1.57 1.62 1.80 1.79 1.84 1.89 1.92 2.00 2.12 2.17 2.08 1.86 1.60 1.32 1.15 1.16 1.28 1.39 1.56 1.66
1.10 1.03 0.97 0.91 0.89 0.88 0.88 0.91 0.97 1.04 1.11 1.18 1.21 1.22 1.22 1.35 1.63 1.67 1.77 1.68 1.64 1.60 1.55 1.50 1.46 1.43 1.52 1.38 1.51 1.70 1.80 1.83 1.80 1.76 1.73 1.41 1.20 1.08 1.20 1.39 1.42 1.43 1.33
1.14 1.13 1.08 1.05 1.05 1.07 1.07 1.11 1.14 1.14 1.20 1.31 1.38 1.41 1.45 1.52 1.65 1.60 1.68 1.54 1.49 1.43 1.36 1.33 1.29 1.22 1.22 1.29 1.35 1.47 1.41 1.37 1.37 1.29 1.25 1.15 1.13 1.17 1.33 1.53 1.62 1.67 1.49
1.33 1.34 1.35 1.35 1.38 1.39 1.40 1.40 1.41 1.44 1.48 1.49 1.50 1.46 1.44 1.47 1.53 1.50 1.51 1.41 1.39 1.30 1.19 1.16 1.17 1.12 1.27 1.47 1.50 1.45 1.31 1.26 1.34 1.41 1.41 1.39 1.50 1.62 1.69 1.92 2.11 2.24 2.00
1.45 1.48 1.50 1.56 1.61 1.56 1.51 1.46 1.39 1.37 1.42 1.44 1.45 1.43 1.36 1.30 1.36 1.35 1.37 1.29 1.25 1.14 1.08 1.06 1.16 1.15 1.35 1.56 1.52 1.47 1.37 1.15 1.15 1.28 1.35 1.35 1.36 1.45 1.68 1.70 1.83 2.18 2.00
1.36 1.40 1.42 1.39 1.39 1.35 1.31 1.26 1.23 1.19 1.16 1.15 1.12 1.10 1.08 1.13 1.21 1.24 1.29 1.29 1.29 1.22 1.13 1.11 1.11 1.26 1.40 1.53 1.58 1.46 1.38 1.31 1.27 1.34 1.38 1.35 1.36 1.40 1.46 1.47 1.50 1.81 2.04
1.06 1.09 1.10 1.04 0.97 0.97 1.00 1.01 0.99 0.99 0.97 0.94 0.90 0.89 0.88 0.94 1.07 1.15 1.26 1.34 1.38 1.36 1.22 1.11 1.18 1.41 1.52 1.57 1.54 1.49 1.55 1.62 1.51 1.56 1.57 1.49 1.40 1.36 1.31 1.31 1.37 1.42 1.50
0.66 0.71 0.74 0.74 0.71 0.70 0.75 0.80 0.82 0.84 0.85 0.84 0.82 0.83 0.82 0.81 0.90 1.04 1.13 1.28 1.38 1.31 1.20 1.26 1.35 1.47 1.53 1.52 1.53 1.53 1.49 1.44 1.48 1.57 1.50 1.34 1.22 1.20 1.25 1.39 1.49 1.52 1.52
0.47 0.53 0.59 0.64 0.66 0.66 0.69 0.73 0.77 0.80 0.82 0.83 0.83 0.83 0.80 0.77 0.83 0.95 1.09 1.19 1.33 1.33 1.29 1.33 1.37 1.38 1.39 1.39 1.44 1.47 1.43 1.40 1.44 1.44 1.36 1.29 1.30 1.38 1.44 1.47 1.63 1.69 1.82
0.40 0.45 0.51 0.57 0.65 0.67 0.67 0.70 0.76 0.79 0.92 1.11 1.12 1.04 1.05 1.03 0.99 1.20 1.39 1.41 1.43 1.48 1.53 1.51 1.41 1.33 1.33 1.33 1.30 1.32 1.38 1.42 1.47 1.39 1.41 1.47 1.48 1.50 1.51 1.46 1.56 1.67 1.74
0.43 0.45 0.51 0.56 0.61 0.66 0.69 0.71 0.75 0.79 0.87 0.96 1.04 1.11 1.09 1.12 1.20 1.30 1.35 1.40 1.48 1.59 1.69 1.62 1.39 1.26 1.22 1.22 1.26 1.30 1.32 1.36 1.37 1.41 1.47 1.50 1.55 1.56 1.55 1.52 1.58 1.67 1.64
0.50 0.53 0.58 0.60 0.62 0.64 0.67 0.71 0.73 0.74 0.79 0.83 0.88 0.94 1.00 1.06 1.16 1.23 1.30 1.36 1.41 1.51 1.52 1.32 1.21 1.19 1.18 1.18 1.22 1.25 1.28 1.27 1.35 1.47 1.54 1.55 1.59 1.61 1.61 1.61 1.62 1.68 1.61
0.54 0.60 0.66 0.65 0.67 0.69 0.70 0.73 0.76 0.78 0.76 0.74 0.77 0.87 0.95 1.04 1.13 1.22 1.31 1.39 1.39 1.30 1.18 1.09 1.09 1.12 1.18 1.26 1.29 1.31 1.30 1.32 1.40 1.49 1.53 1.57 1.65 1.74 1.71 1.60 1.55 1.59 1.62
0.56 0.59 0.65 0.69 0.72 0.74 0.74 0.75 0.76 0.76 0.73 0.69 0.68 0.76 0.89 1.01 1.12 1.22 1.29 1.32 1.24 1.13 1.05 1.04 1.10 1.18 1.24 1.30 1.35 1.39 1.43 1.43 1.41 1.50 1.55 1.57 1.65 1.81 1.75 1.55 1.54 1.55 1.65
0.56 0.65 0.70 0.71 0.71 0.73 0.75 0.76 0.76 0.75 0.74 0.70 0.68 0.72 0.87 1.06 1.09 1.08 1.12 1.15 1.17 1.16 1.14 1.15 1.15 1.19 1.27 1.35 1.40 1.45 1.48 1.45 1.45 1.52 1.55 1.57 1.61 1.76 1.79 1.66 1.64 1.69 1.62
0.57 0.61 0.70 0.68 0.66 0.70 0.78 0.82 0.80 0.79 0.77 0.72 0.67 0.74 1.06 1.26 1.13 1.02 1.03 1.06 1.14 1.19 1.23 1.26 1.25 1.27 1.31 1.37 1.43 1.45 1.45 1.42 1.41 1.48 1.51 1.53 1.60 1.69 1.64 1.68 1.69 1.70 1.73
0.59 0.60 0.64 0.68 0.71 0.76 0.85 0.87 0.88 0.86 0.83 0.80 0.75 0.78 0.96 1.02 0.98 0.97 0.98 0.99 1.04 1.13 1.22 1.34 1.35 1.30 1.38 1.50 1.57 1.59 1.49 1.37 1.34 1.45 1.49 1.46 1.50 1.56 1.62 1.74 1.78 1.81 1.77
0.62 0.65 0.66 0.68 0.73 0.81 0.85 0.82 0.85 0.88 0.87 0.86 0.86 0.86 0.88 0.90 0.90 0.92 0.94 0.96 1.02 1.09 1.14 1.25 1.31 1.25 1.22 1.36 1.50 1.71 1.78 1.56 1.43 1.55 1.76 1.74 1.67 1.68 1.76 1.82 1.74 1.72 1.62
0.64 0.65 0.68 0.69 0.71 0.75 0.77 0.76 0.77 0.81 0.85 0.86 0.87 0.87 0.86 0.89 0.91 0.92 0.95 0.99 1.03 1.05 1.08 1.16 1.20 1.18 1.15 1.24 1.32 1.41 1.54 1.68 1.90 2.06 2.17 2.30 2.06 1.79 1.76 1.73 1.60 1.53 1.54
0.59 0.62 0.64 0.67 0.70 0.72 0.72 0.72 0.73 0.77 0.79 0.81 0.82 0.82 0.82 0.83 0.86 0.89 0.92 0.95 0.96 0.97 0.95 1.00 1.10 1.14 1.13 1.14 1.20 1.26 1.35 1.58 1.97 2.37 2.46 2.34 2.00 1.71 1.71 1.70 1.58 1.52 1.53
0.55 0.59 0.62 0.65 0.68 0.69 0.70 0.71 0.70 0.72 0.75 0.76 0.78 0.80 0.80 0.81 0.82 0.84 0.87 0.90 0.91 0.88 0.85 0.87 0.93 1.01 1.05 1.07 1.05 1.13 1.31 1.48 1.59 1.78 2.25 2.39 2.07 1.73 1.69 1.79 1.66 1.61 1.58